Weather History for Point Lay, AK

Change the Weather History Date:

Sunday, January 5, 2014

  Actual Average Record
Temperature  
Mean Temperature -6 °F -  
Max Temperature 0 °F -7 °F 0 °F (2013)
Min Temperature -11 °F -15 °F -38 °F (2009)
Degree Days  
Heating Degree Days 70    
Moisture  
Dew Point -11 °F    
Average Humidity 81    
Maximum Humidity 85    
Minimum Humidity 77    
Precipitation  
Precipitation 0.00 in - - ()
Sea Level Pressure  
Sea Level Pressure 30.06 in    
Wind  
Wind Speed 14 mph (NE)    
Max Wind Speed 18 mph    
Max Gust Speed -    
Averages and records for this station are not official NWS values.
T = Trace of Precipitation, MM = Missing Value Source: NWS Daily Summary

Daily Weather History Graph

Daily Weather History Graph

Search for Another Location

Airport:

Trip Planner

Search our weather history database for the weather conditions in past years. The results will help you decide how hot, cold, wet, or windy it might be!

Date:

Astronomy

Jan. 05, 2014 Rise Set
Actual Time 1:25 PM AKST 2:30 PM AKST
Civil Twilight 11:29 AM AKST 4:26 PM AKST
Nautical Twilight 9:50 AM AKST 6:04 PM AKST
Astronomical Twilight 8:34 AM AKST 7:21 PM AKST
Moon 12:16 PM AKST (1/5) No Moon Set
Length of Visible Light 4h 57m
Length of Day
1h 04m
Waxing Crescent, 26% of the Moon is Illuminated
Jan 5
Waxing Crescent
Jan 7
First Quarter
Jan 15
Full
Jan 23
Last Quarter
Jan 30
New

Hourly Weather History & Observations

Time (AKST) Temp. Windchill Dew Point Humidity Pressure Visibility Wind Dir Wind Speed Gust Speed Precip Events Conditions
12:56 AM -9.9 °F -31.3 °F -15.0 °F 78% 30.21 in - NE 13.8 mph - N/A   Clear
1:56 AM -9.9 °F -32.8 °F -15.0 °F 78% 30.20 in - NE 16.1 mph - N/A   Clear
2:56 AM -9.4 °F -32.8 °F -14.8 °F 77% 30.18 in - NNE 17.3 mph - N/A   Clear
3:56 AM -10.8 °F -34.7 °F -15.9 °F 78% 30.17 in - NE 17.3 mph - N/A   Mostly Cloudy
4:21 AM -11.2 °F -34.4 °F -16.6 °F 77% 30.15 in - NNE 16.1 mph - N/A   Clear
4:48 AM -11.2 °F -35.2 °F -16.6 °F 77% 30.14 in - NNE 17.3 mph - N/A   Mostly Cloudy
4:56 AM -9.9 °F -34.2 °F -15.0 °F 78% 30.15 in - NE 18.4 mph - N/A   Mostly Cloudy
5:56 AM -8.9 °F -30.7 °F -13.9 °F 79% 30.14 in - NE 15.0 mph - N/A   Overcast
6:56 AM -8.9 °F -31.4 °F -13.9 °F 79% 30.12 in - NE 16.1 mph - N/A   Overcast
7:56 AM -9.9 °F -32.1 °F -13.9 °F 83% 30.11 in - ENE 15.0 mph - N/A   Overcast
8:56 AM -10.8 °F -31.6 °F -15.9 °F 78% 30.10 in - NE 12.7 mph - N/A   Mostly Cloudy
9:40 AM -11.2 °F -31.1 °F -16.6 °F 77% 30.08 in - NE 11.5 mph - N/A   Overcast
9:56 AM -9.9 °F -29.6 °F -15.0 °F 78% 30.09 in - NE 11.5 mph - N/A   Overcast
10:56 AM -9.9 °F -28.6 °F -15.0 °F 78% 30.09 in - NE 10.4 mph - N/A   Overcast
11:39 AM -7.6 °F -25.7 °F -11.2 °F 84% 30.06 in - NE 10.4 mph - N/A   Overcast
11:56 AM -6.9 °F -26.6 °F -11.9 °F 79% 30.07 in - NE 12.7 mph - N/A   Overcast
12:09 PM -7.6 °F -27.5 °F -11.2 °F 84% 30.06 in - ENE 12.7 mph - N/A   Overcast
12:56 PM -6.0 °F -27.0 °F -10.8 °F 79% 30.06 in - ENE 15.0 mph - N/A   Overcast
1:56 PM -4.0 °F -22.1 °F -8.9 °F 80% 30.04 in - NE 11.5 mph - N/A   Overcast
2:56 PM -1.8 °F -18.5 °F -6.0 °F 83% 30.02 in - NE 10.4 mph - N/A   Overcast
3:56 PM -4.0 °F -19.0 °F -8.0 °F 83% 30.01 in - NE 8.1 mph - 0.00 in   Mostly Cloudy
4:56 PM -0.9 °F -16.4 °F -4.9 °F 83% 30.01 in - NE 9.2 mph - N/A   Overcast
5:56 PM -1.8 °F -17.5 °F -6.0 °F 83% 30.00 in - ENE 9.2 mph - N/A   Mostly Cloudy
6:22 PM -2.2 °F -18.0 °F -5.8 °F 85% 29.98 in - NE 9.2 mph - N/A   Mostly Cloudy
6:56 PM -1.8 °F -18.5 °F -6.0 °F 83% 30.00 in - ENE 10.4 mph - N/A   Mostly Cloudy
7:31 PM -2.2 °F -16.8 °F -7.6 °F 78% 29.97 in - NE 8.1 mph - N/A   Mostly Cloudy
7:56 PM -2.9 °F -21.6 °F -6.9 °F 83% 29.98 in - NE 12.7 mph - N/A   Mostly Cloudy
8:56 PM -2.9 °F -20.8 °F -6.9 °F 83% 29.98 in - ENE 11.5 mph - N/A   Mostly Cloudy
9:43 PM -2.2 °F -18.9 °F -5.8 °F 85% 29.96 in - ENE 10.4 mph - N/A   Overcast
9:56 PM -1.8 °F -18.5 °F -6.0 °F 83% 29.98 in - NE 10.4 mph - N/A   Overcast
10:56 PM -1.8 °F -18.5 °F -6.0 °F 83% 29.97 in - NE 10.4 mph - N/A   Overcast
11:40 PM -0.4 °F -19.2 °F -5.8 °F 78% 29.96 in - ENE 13.8 mph - 0.00 in Snow Light Snow
11:56 PM -2.2 °F -20.7 °F -5.8 °F 85% 29.96 in - ENE 12.7 mph - N/A Snow Light Snow